Location: Complexul Astronomic Baia Mare
(47.6577°N, 23.5639°E)
Time: 06:51:24
(UTC+03:00)

ISS - Pass Details

Date: 28 May 2017
Orbit: 402 x 408 km, 51.6° (Epoch: 29 May)

Event Time Altitude Azimuth Distance (km) Brightness Sun altitude
Rises 02:43:21 0° 293° (WNW) 2,332 0.1 -18.6°
Reaches altitude 10° 02:45:28 10° 289° (WNW) 1,468 -1.0 -18.4°
Enters shadow 02:47:23 31° 276° (W) 739 -2.7 -18.3°
